EW5808 Cabra ES current weather conditions

sailwx.info

Wind from 360

Air temperature 21.7° C
Dewpoint 8.5° C

Last reported at 2019-May-24 00:08 UTC.
Time now 2019-May-24 00:50 UTC

Location: N 37°28' W 004°27'.
View on Google Maps.

See reports from other nearby stations

  
Tides and Currents Weather Stations Pressure Air Temp Water Temp Dewpoint Dewpoint Depression Visibility Wind Speed Wind Dir Waves Ship Positions
date/time (UTC)wind fromknots sea level pressurealtimeterstation pressurevisibilityair tempwater tempwave heightnotes
2019-May-24 00:08 360 21.7
2019-May-24 00:03 360 21.7
2019-May-23 23:58 360 0 gusting 2 21.7
2019-May-23 23:53 360 0 gusting 2 21.7
2019-May-23 23:48 360 21.7
2019-May-23 23:43 360 21.7
2019-May-23 23:38 360 0 gusting 2 21.7
2019-May-23 23:33 360 0 gusting 2 21.7
2019-May-23 23:28 360 0 gusting 2 22.2
2019-May-23 23:23 360 0 gusting 2 22.2
2019-May-23 23:18 360 1 gusting 2 22.2
2019-May-23 23:13 360 22.8
2019-May-23 23:08 360 0 gusting 1 22.8
2019-May-23 23:03 360 0 gusting 1 22.8
2019-May-23 22:58 360 0 gusting 1 23.3
2019-May-23 22:53 360 0 gusting 5 23.3
2019-May-23 22:48 360 1 gusting 5 23.3
2019-May-23 22:43 360 0 gusting 3 23.3
2019-May-23 22:38 360 1 gusting 3 23.3
2019-May-23 22:33 360 1 gusting 3 23.3
2019-May-23 22:28 360 1 gusting 3 23.3
2019-May-23 22:23 360 1 gusting 3 23.9
2019-May-23 22:18 360 2 gusting 3 23.9
2019-May-23 22:13 360 0 gusting 2 23.9
2019-May-23 22:08 360 0 gusting 1 23.9
2019-May-23 22:03 360 0 gusting 1 23.9
2019-May-23 21:58 360 23.9
2019-May-23 21:53 360 0 gusting 1 23.9
2019-May-23 21:48 360 24.4
2019-May-23 21:43 360 0 gusting 3 24.4
2019-May-23 21:38 360 1 gusting 4 24.4
2019-May-23 21:33 360 1 gusting 4 24.4
2019-May-23 21:28 360 0 gusting 2 24.4
2019-May-23 21:23 360 24.4
2019-May-23 21:18 360 24.4
2019-May-23 21:13 360 0 gusting 2 24.4
2019-May-23 21:08 360 0 gusting 2 24.4
2019-May-23 21:03 360 0 gusting 3 24.4
2019-May-23 20:58 360 1 gusting 3 24.4
2019-May-23 20:53 360 0 gusting 2 25.0
2019-May-23 20:48 360 0 gusting 1 25.0
2019-May-23 20:43 360 0 gusting 1 25.0
2019-May-23 20:38 360 0 gusting 1 25.0
2019-May-23 20:33 150 0 gusting 2 25.6
2019-May-23 20:28 150 0 gusting 2 25.6
2019-May-23 20:23 150 0 gusting 5 25.6
2019-May-23 20:18 150 1 gusting 5 25.6
2019-May-23 20:13 241 1 gusting 3 26.1
2019-May-23 20:08 298 0 gusting 2 26.1
2019-May-23 20:03 298 1 gusting 2 26.1
2019-May-23 19:58 298 1 gusting 2 26.1
2019-May-23 19:53 360 0 gusting 2 26.1
2019-May-23 19:48 360 26.7
2019-May-23 19:43 360 26.7
2019-May-23 19:38 360 0 gusting 1 26.7
2019-May-23 19:33 360 0 gusting 2 26.7
2019-May-23 19:28 360 1 gusting 2 27.2
2019-May-23 19:23 360 1 gusting 3 27.2
2019-May-23 19:18 298 1 gusting 3 27.2
2019-May-23 19:13 360 1 gusting 3 27.2
2019-May-23 19:08 297 1 gusting 3 27.8
2019-May-23 19:03 298 1 gusting 4 27.8
2019-May-23 18:58 298 1 gusting 6 27.8
2019-May-23 18:53 303 2 gusting 7 27.8
2019-May-23 18:48 284 2 gusting 7 27.8
2019-May-23 18:43 290 2 gusting 7 28.3
2019-May-23 18:38 298 2 gusting 9 28.3
2019-May-23 18:33 284 5 gusting 8 28.3
2019-May-23 18:28 313 3 gusting 6 28.3
2019-May-23 18:23 294 1 gusting 8 28.9
2019-May-23 18:18 338 2 gusting 8 28.9
2019-May-23 18:13 292 2 gusting 6 28.9
2019-May-23 18:08 290 2 gusting 8 28.9
2019-May-23 18:03 304 3 gusting 8 29.4
2019-May-23 17:58 306 2 gusting 7 29.4
2019-May-23 17:53 300 3 gusting 7 30.0
2019-May-23 17:48 279 2 gusting 9 30.0
2019-May-23 17:43 265 5 gusting 9 30.6
2019-May-23 17:38 295 2 gusting 7 30.6
2019-May-23 17:33 284 4 gusting 7 30.6
2019-May-23 17:28 298 3 gusting 7 30.6
2019-May-23 17:23 304 1 gusting 6 30.6
2019-May-23 17:18 302 1 gusting 9 30.6
2019-May-23 17:13 283 5 gusting 9 31.1
2019-May-23 17:08 321 4 gusting 9 31.1
2019-May-23 17:03 274 5 gusting 9 31.7
2019-May-23 16:58 005 4 gusting 7 31.7
2019-May-23 16:53 347 1 gusting 6 31.7
2019-May-23 16:48 299 2 gusting 6 31.7
2019-May-23 16:43 311 0 gusting 4 31.1
2019-May-23 16:38 073 1 gusting 10 31.1
2019-May-23 16:33 288 4 gusting 10 31.1
2019-May-23 16:28 277 5 gusting 10 31.7
2019-May-23 16:23 286 5 gusting 10 31.7
2019-May-23 16:18 310 1 gusting 8 31.7
2019-May-23 16:13 298 3 gusting 8 31.7
2019-May-23 16:08 050 1 gusting 5 31.7
2019-May-23 16:03 301 1 gusting 10 31.7
2019-May-23 15:58 302 3 gusting 10 31.7
2019-May-23 15:53 061 1 gusting 5 31.7
2019-May-23 15:48 308 1 gusting 10 31.1
2019-May-23 15:43 263 3 gusting 10 31.1
2019-May-23 15:38 295 5 gusting 10 31.7
2019-May-23 15:33 310 1 gusting 3 31.7
2019-May-23 15:28 022 0 gusting 3 31.7
2019-May-23 15:23 173 0 gusting 7 31.7
2019-May-23 15:18 212 4 gusting 8 31.7
2019-May-23 15:13 296 4 gusting 10 31.1
2019-May-23 15:08 248 3 gusting 12 31.7
2019-May-23 15:03 226 4 gusting 8 31.7
2019-May-23 14:58 227 4 gusting 7 31.7
2019-May-23 14:53 292 1 gusting 8 31.7
2019-May-23 14:48 276 4 gusting 8 31.7
2019-May-23 14:43 293 3 gusting 8 31.7
2019-May-23 14:38 301 0 gusting 4 31.7
2019-May-23 14:33 296 1 gusting 4 31.7
2019-May-23 14:28 054 0 gusting 4 31.7
2019-May-23 14:23 009 2 gusting 7 31.7
2019-May-23 14:18 300 1 gusting 7 31.7
2019-May-23 14:13 310 1 gusting 9 31.1
2019-May-23 14:08 278 4 gusting 9 31.1
2019-May-23 14:03 183 3 gusting 8 31.1
2019-May-23 13:58 034 4 gusting 8 31.7
2019-May-23 13:53 223 1 gusting 6 31.1
2019-May-23 13:48 264 1 gusting 9 31.1
2019-May-23 13:43 096 4 gusting 10 31.1
2019-May-23 13:38 101 4 gusting 10 31.1
2019-May-23 13:33 309 3 gusting 9 30.6
2019-May-23 13:28 300 1 gusting 6 30.6
2019-May-23 13:23 067 0 gusting 9 30.6
2019-May-23 13:18 265 4 gusting 9 30.6
2019-May-23 13:13 322 4 gusting 10 30.6
2019-May-23 13:08 032 2 gusting 10 30.6
2019-May-23 13:03 247 6 gusting 8 30.6
2019-May-23 12:58 309 2 gusting 7 30.6
2019-May-23 12:53 186 4 gusting 7 30.6
2019-May-23 12:48 097 1 gusting 6 30.6
2019-May-23 12:43 219 4 gusting 6 30.6
2019-May-23 12:38 260 2 gusting 6 30.0
2019-May-23 12:33 247 2 gusting 6 30.6
2019-May-23 12:28 271 1 gusting 6 30.0
2019-May-23 12:23 179 2 gusting 5 30.0
2019-May-23 12:18 233 2 gusting 7 30.0
2019-May-23 12:13 275 4 gusting 7 30.0
2019-May-23 12:08 304 30.0
2019-May-23 12:03 300 3 gusting 7 30.0
2019-May-23 11:58 300 2 gusting 6 30.0
2019-May-23 11:53 283 3 gusting 6 30.0
2019-May-23 11:48 175 2 gusting 6 30.0
2019-May-23 11:43 036 1 gusting 3 29.4
2019-May-23 11:38 317 0 gusting 7 30.0
2019-May-23 11:33 300 2 gusting 7 30.0
2019-May-23 11:28 244 2 gusting 6 30.0
2019-May-23 11:23 140 1 gusting 5 30.0
2019-May-23 11:18 207 0 gusting 4 30.0
2019-May-23 11:13 209 1 gusting 4 30.0
2019-May-23 11:08 246 0 gusting 4 29.4
2019-May-23 11:03 196 1 gusting 3 29.4
2019-May-23 10:58 159 0 gusting 4 29.4
2019-May-23 10:53 161 1 gusting 4 28.9
2019-May-23 10:48 251 0 gusting 3 28.9
2019-May-23 10:43 251 0 gusting 3 28.9
2019-May-23 10:38 186 1 gusting 2 28.3
2019-May-23 10:33 184 0 gusting 5 28.3
2019-May-23 10:28 150 1 gusting 4 28.3
2019-May-23 10:23 173 1 gusting 3 28.3
2019-May-23 10:18 173 0 gusting 3 28.3
2019-May-23 10:13 225 0 gusting 6 27.8
2019-May-23 10:08 232 2 gusting 5 27.8
2019-May-23 10:03 254 2 gusting 5 27.8
2019-May-23 09:58 284 1 gusting 4 28.3
2019-May-23 09:53 328 27.8
2019-May-23 09:48 307 1 gusting 4 27.8
2019-May-23 09:43 282 27.2
2019-May-23 09:38 281 1 gusting 4 27.2
2019-May-23 09:33 292 0 gusting 2 27.2
2019-May-23 09:28 308 0 gusting 2 26.7
2019-May-23 09:23 306 1 gusting 2 26.7
2019-May-23 09:18 307 0 gusting 3 26.1
2019-May-23 09:13 307 0 gusting 6 26.1
2019-May-23 09:08 310 1 gusting 3 25.6
2019-May-23 09:03 310 1 gusting 3 25.6
2019-May-23 08:58 278 0 gusting 3 25.6
2019-May-23 08:53 276 0 gusting 3 25.6
2019-May-23 08:48 277 1 gusting 3 25.6
2019-May-23 08:43 268 2 gusting 3 25.0
2019-May-23 08:38 272 0 gusting 3 25.0
2019-May-23 08:33 264 0 gusting 3 24.4
2019-May-23 08:28 300 1 gusting 3 24.4
2019-May-23 08:23 259 1 gusting 3 23.9
2019-May-23 08:18 281 1 gusting 3 23.9
2019-May-23 08:13 248 1 gusting 2 23.9
2019-May-23 08:08 248 0 gusting 2 23.3
2019-May-23 08:03 250 0 gusting 1 23.3
2019-May-23 07:58 249 1 gusting 1 23.3
2019-May-23 07:53 249 0 gusting 1 22.8
2019-May-23 07:48 249 0 gusting 2 22.8
2019-May-23 07:43 249 0 gusting 2 22.2
2019-May-23 07:38 249 0 gusting 1 22.2
2019-May-23 07:33 249 0 gusting 0 21.7
2019-May-23 07:28 249 21.1
2019-May-23 07:23 249 21.1
2019-May-23 07:18 249 0 gusting 1 21.1
2019-May-23 07:13 249 0 gusting 1 20.6
2019-May-23 07:08 249 0 gusting 2 20.6
2019-May-23 07:03 249 1 gusting 2 20.6
2019-May-23 06:58 249 0 gusting 2 20.6
2019-May-23 06:53 138 0 gusting 2 20.0
2019-May-23 06:48 138 19.4
2019-May-23 06:43 138 19.4
2019-May-23 06:38 138 18.9
2019-May-23 06:33 138 18.3
2019-May-23 06:28 138 17.8
2019-May-23 06:23 138 17.8
2019-May-23 06:18 138 0 gusting 1 17.2
2019-May-23 06:13 138 0 gusting 2 17.2
2019-May-23 06:08 138 0 gusting 2 16.7
2019-May-23 06:03 139 16.7
2019-May-23 05:58 360 16.7
2019-May-23 05:53 138 1 gusting 2 16.1
2019-May-23 05:48 360 0 gusting 2 16.1
2019-May-23 05:43 360 0 gusting 2 16.1
2019-May-23 05:38 138 1 gusting 2 16.1
2019-May-23 05:33 149 0 gusting 2 16.1
2019-May-23 05:28 149 1 gusting 2 16.1
2019-May-23 05:23 162 0 gusting 1 16.1
2019-May-23 05:18 162 16.1
2019-May-23 05:13 162 0 gusting 2 16.1
2019-May-23 05:08 162 0 gusting 4 16.1
2019-May-23 05:03 162 3 gusting 4 16.1
2019-May-23 04:58 288 1 gusting 3 16.1
2019-May-23 04:53 299 16.1
2019-May-23 04:48 298 16.1
2019-May-23 04:43 298 16.1
2019-May-23 04:38 298 0 gusting 2 16.1
2019-May-23 04:33 298 0 gusting 2 16.1
2019-May-23 04:28 298 16.1
2019-May-23 04:23 298 0 gusting 1 16.1
2019-May-23 04:18 298 0 gusting 1 16.1
2019-May-23 04:13 360 0 gusting 1 16.1
2019-May-23 04:08 360 0 gusting 1 16.7
2019-May-23 04:03 297 16.7
2019-May-23 03:58 360 16.7
2019-May-23 03:53 360 16.7
2019-May-23 03:48 298 16.7
2019-May-23 03:43 298 16.7
2019-May-23 03:38 360 16.7
2019-May-23 03:33 360 16.7
2019-May-23 03:28 298 16.7
2019-May-23 03:23 298 0 gusting 1 16.7
2019-May-23 03:18 298 16.7
2019-May-23 03:13 298 16.7
2019-May-23 03:08 360 16.7
2019-May-23 03:03 298 17.2
2019-May-23 02:58 360 17.2
2019-May-23 02:53 298 17.2
2019-May-23 02:48 360 17.2
2019-May-23 02:43 297 17.2
2019-May-23 02:38 360 0 gusting 1 17.2
2019-May-23 02:33 360 0 gusting 1 17.2
2019-May-23 02:28 360 0 gusting 1 17.2
2019-May-23 02:23 360 0 gusting 1 17.2
2019-May-23 02:18 360 0 gusting 1 17.2
2019-May-23 02:13 360 0 gusting 2 17.2
2019-May-23 02:08 360 0 gusting 2 17.2
2019-May-23 02:03 360 17.2
2019-May-23 01:58 360 17.2
2019-May-23 01:53 360 17.2
2019-May-23 01:48 360 17.2
2019-May-23 01:43 360 17.8
2019-May-23 01:38 360 17.8
2019-May-23 01:33 360 17.8
2019-May-23 01:28 360 17.8
2019-May-23 01:23 360 17.8
2019-May-23 01:18 360 17.8
2019-May-23 01:13 360 17.8
2019-May-23 01:08 360 17.8
2019-May-23 01:03 360 17.8
2019-May-23 00:58 360 18.3
2019-May-23 00:53 360 18.3
2019-May-23 00:48 360 18.3
2019-May-23 00:43 360 18.3
2019-May-23 00:38 360 18.3
2019-May-23 00:33 360 18.3
2019-May-23 00:28 360 18.3
2019-May-23 00:23 360 18.9
2019-May-23 00:18 360 18.9
2019-May-23 00:13 360 18.9
2019-May-23 00:08 360 18.9
2019-May-23 00:03 360 18.9
2019-May-22 23:58 360 19.4
2019-May-22 23:53 360 19.4
2019-May-22 23:48 360 19.4
2019-May-22 23:43 360 19.4
2019-May-22 23:38 287 19.4
2019-May-22 23:33 288 0 gusting 1 19.4
2019-May-22 23:28 288 0 gusting 1 19.4
2019-May-22 23:23 288 0 gusting 1 19.4
2019-May-22 23:18 288 20.0
2019-May-22 23:13 288 1 gusting 2 20.0
2019-May-22 23:08 288 20.0
2019-May-22 23:03 288 0 gusting 2 20.0
2019-May-22 22:58 288 1 gusting 2 20.0
2019-May-22 22:53 288 0 gusting 2 20.0
2019-May-22 22:48 288 0 gusting 1 20.0
2019-May-22 22:43 287 0 gusting 1 20.0
2019-May-22 22:38 288 20.0
2019-May-22 22:33 288 0 gusting 3 20.6
2019-May-22 22:28 288 0 gusting 4 20.6
2019-May-22 22:23 288 1 gusting 4 20.6
2019-May-22 22:18 207 0 gusting 3 20.6
2019-May-22 22:13 207 2 gusting 3 20.6
2019-May-22 22:08 192 21.1
2019-May-22 22:03 192 0 gusting 1 21.1
2019-May-22 21:58 360 0 gusting 1 21.7
2019-May-22 21:53 360 0 gusting 1 21.7
2019-May-22 21:48 360 1 gusting 1 22.2
2019-May-22 21:43 360 0 gusting 3 22.2
2019-May-22 21:38 360 1 gusting 3 22.8
2019-May-22 21:33 360 1 gusting 2 22.8
2019-May-22 21:28 360 1 gusting 2 22.8
2019-May-22 21:23 192 1 gusting 2 22.8
2019-May-22 21:18 192 1 gusting 2 22.8
2019-May-22 21:13 360 23.3
2019-May-22 21:08 360 23.3
2019-May-22 21:03 360 23.3
2019-May-22 20:58 192 23.3
2019-May-22 20:53 192 0 gusting 1 23.3
2019-May-22 20:48 192 0 gusting 1 23.3
2019-May-22 20:43 192 0 gusting 1 23.3
2019-May-22 20:38 360 0 gusting 1 23.3
2019-May-22 20:33 192 1 gusting 2 23.9
2019-May-22 20:28 192 0 gusting 2 23.9
2019-May-22 20:23 192 0 gusting 2 23.9
2019-May-22 20:18 192 0 gusting 1 23.9
2019-May-22 20:13 192 24.4
2019-May-22 20:08 360 0 gusting 1 24.4
2019-May-22 20:03 360 0 gusting 2 24.4
2019-May-22 19:58 360 0 gusting 2 24.4
2019-May-22 19:53 360 0 gusting 2 25.0
2019-May-22 19:48 360 0 gusting 2 25.0
2019-May-22 19:43 192 0 gusting 2 25.0
2019-May-22 19:38 360 0 gusting 2 25.0
2019-May-22 19:33 360 0 gusting 3 25.6
2019-May-22 19:28 193 1 gusting 3 25.6
2019-May-22 19:23 360 1 gusting 4 25.6
2019-May-22 19:18 197 1 gusting 5 26.1
2019-May-22 19:13 200 2 gusting 5 26.1
2019-May-22 19:08 197 1 gusting 6 26.7
2019-May-22 19:03 245 2 gusting 6 26.7
2019-May-22 18:58 230 3 gusting 6 26.7
2019-May-22 18:53 227 1 gusting 6 26.7
2019-May-22 18:48 234 2 gusting 6 27.2
2019-May-22 18:43 234 2 gusting 6 27.2
2019-May-22 18:38 240 3 gusting 5 27.2
2019-May-22 18:33 220 2 gusting 7 27.2
2019-May-22 18:28 248 3 gusting 8 27.2
2019-May-22 18:23 242 3 gusting 8 27.8
2019-May-22 18:18 203 2 gusting 7 27.8
2019-May-22 18:13 244 2 gusting 7 27.8
2019-May-22 18:08 320 3 gusting 6 27.8
2019-May-22 18:03 262 3 gusting 9 27.8
2019-May-22 17:58 231 2 gusting 9 27.8
2019-May-22 17:53 223 3 gusting 8 27.8
2019-May-22 17:48 205 4 gusting 8 28.3
2019-May-22 17:43 221 3 gusting 6 28.3
2019-May-22 17:38 254 3 gusting 6 28.3
2019-May-22 17:33 254 2 gusting 6 28.3
2019-May-22 17:28 217 3 gusting 9 28.3
2019-May-22 17:23 252 3 gusting 9 28.3
2019-May-22 17:18 257 4 gusting 9 28.3
2019-May-22 17:13 258 3 gusting 9 28.3
2019-May-22 17:08 227 3 gusting 7 28.9
2019-May-22 17:03 275 3 gusting 8 28.9
2019-May-22 16:58 285 3 gusting 8 29.4
2019-May-22 16:53 252 2 gusting 11 29.4
2019-May-22 16:48 292 5 gusting 11 29.4
2019-May-22 16:43 262 3 gusting 10 29.4
2019-May-22 16:38 257 4 gusting 10 30.0
2019-May-22 16:33 274 1 gusting 7 30.0
2019-May-22 16:28 319 3 gusting 5 30.0
2019-May-22 16:23 242 2 gusting 9 30.0
2019-May-22 16:18 259 4 gusting 9 30.0
2019-May-22 16:13 230 2 gusting 7 30.0
2019-May-22 16:08 209 1 gusting 6 30.0
2019-May-22 16:03 219 3 gusting 6 30.0
2019-May-22 15:58 263 3 gusting 7 30.0
2019-May-22 15:53 273 3 gusting 7 30.6
2019-May-22 15:48 207 1 gusting 5 30.6
2019-May-22 15:43 232 2 gusting 4 30.6
2019-May-22 15:38 232 0 gusting 7 30.0
2019-May-22 15:33 284 2 gusting 8 29.4
2019-May-22 15:28 295 3 gusting 8 29.4
2019-May-22 15:23 013 0 gusting 3 28.9
2019-May-22 15:18 034 1 gusting 4 28.9
2019-May-22 15:13 310 0 gusting 1 28.9
2019-May-22 15:08 308 28.9
2019-May-22 15:03 304 0 gusting 4 29.4
2019-May-22 14:58 286 1 gusting 4 29.4
2019-May-22 14:53 304 1 gusting 4 29.4
2019-May-22 14:48 073 2 gusting 4 29.4
2019-May-22 14:43 291 1 gusting 3 29.4
2019-May-22 14:38 334 0 gusting 2 29.4
2019-May-22 14:33 336 1 gusting 4 28.9
2019-May-22 14:28 051 1 gusting 4 29.4
2019-May-22 14:23 298 1 gusting 3 29.4
2019-May-22 14:18 302 1 gusting 5 28.9
2019-May-22 14:13 288 2 gusting 7 28.9
2019-May-22 14:08 274 1 gusting 9 28.9
2019-May-22 14:03 287 3 gusting 6 28.9
2019-May-22 13:58 239 1 gusting 3 28.9
2019-May-22 13:53 296 1 gusting 7 29.4
2019-May-22 13:48 278 1 gusting 8 29.4
2019-May-22 13:43 302 3 gusting 8 29.4
2019-May-22 13:38 263 3 gusting 6 29.4
2019-May-22 13:33 242 2 gusting 13 28.9
2019-May-22 13:28 301 3 gusting 13 28.9
2019-May-22 13:23 178 3 gusting 6 29.4
2019-May-22 13:18 244 1 gusting 6 29.4
2019-May-22 13:13 046 2 gusting 6 29.4
2019-May-22 13:08 019 1 gusting 6 29.4
2019-May-22 13:03 098 0 gusting 5 29.4
2019-May-22 12:58 064 2 gusting 6 29.4
2019-May-22 12:53 325 3 gusting 6 28.9
2019-May-22 12:48 355 2 gusting 6 28.9
2019-May-22 12:43 168 2 gusting 6 28.3
2019-May-22 12:38 239 0 gusting 4 28.3
2019-May-22 12:33 242 1 gusting 5 27.8
2019-May-22 12:28 247 0 gusting 5 27.8
2019-May-22 12:23 193 1 gusting 4 27.2
2019-May-22 12:18 200 1 gusting 4 27.2
2019-May-22 12:13 250 1 gusting 3 27.2
2019-May-22 12:08 248 0 gusting 4 27.2
2019-May-22 12:03 279 2 gusting 4 27.8
2019-May-22 11:58 243 2 gusting 6 28.3
2019-May-22 11:53 205 3 gusting 7 28.3
2019-May-22 11:48 302 4 gusting 7 28.9
2019-May-22 11:43 304 2 gusting 6 28.9
2019-May-22 11:38 269 1 gusting 5 28.9
2019-May-22 11:33 294 0 gusting 4 28.9
2019-May-22 11:28 307 1 gusting 4 28.9
2019-May-22 11:23 315 0 gusting 3 28.9
2019-May-22 11:18 304 1 gusting 3 28.3
2019-May-22 11:13 040 0 gusting 4 28.3
2019-May-22 11:08 319 1 gusting 5 28.3
2019-May-22 11:03 301 1 gusting 4 28.3
2019-May-22 10:58 323 1 gusting 3 27.8
2019-May-22 10:53 321 0 gusting 6 27.8
2019-May-22 10:48 319 2 gusting 6 27.2
2019-May-22 10:43 285 1 gusting 5 27.2
2019-May-22 10:38 303 0 gusting 4 27.2
2019-May-22 10:33 329 1 gusting 6 26.7
2019-May-22 10:28 327 2 gusting 5 26.7
2019-May-22 10:23 234 1 gusting 5 26.1
2019-May-22 10:18 309 1 gusting 7 26.1
2019-May-22 10:13 294 2 gusting 7 25.6
2019-May-22 10:08 296 3 gusting 6 26.1
2019-May-22 10:03 265 1 gusting 4 26.1
2019-May-22 09:58 301 1 gusting 4 26.1
2019-May-22 09:53 295 2 gusting 5 25.6
2019-May-22 09:48 355 1 gusting 5 25.6
2019-May-22 09:43 011 2 gusting 4 25.6
2019-May-22 09:38 298 1 gusting 5 25.0
2019-May-22 09:33 302 2 gusting 4 25.0
2019-May-22 09:28 311 1 gusting 3 25.0
2019-May-22 09:23 310 1 gusting 4 24.4
2019-May-22 09:18 360 1 gusting 4 24.4
2019-May-22 09:13 360 2 gusting 6 24.4
2019-May-22 09:08 311 2 gusting 6 23.9
2019-May-22 09:03 289 1 gusting 2 23.9
2019-May-22 08:58 360 1 gusting 3 23.9
2019-May-22 08:53 293 1 gusting 3 23.3
2019-May-22 08:48 360 1 gusting 5 23.3
2019-May-22 08:43 307 1 gusting 5 23.3
2019-May-22 08:38 360 1 gusting 5 23.3
2019-May-22 08:33 360 0 gusting 3 23.3
2019-May-22 08:28 360 0 gusting 3 22.8
2019-May-22 08:23 360 0 gusting 3 22.8
2019-May-22 08:18 309 0 gusting 3 22.8
2019-May-22 08:13 312 1 gusting 3 22.2
2019-May-22 08:08 309 0 gusting 5 22.2
2019-May-22 08:03 309 0 gusting 5 22.2
2019-May-22 07:58 322 1 gusting 3 21.7
2019-May-22 07:53 360 0 gusting 3 21.1
2019-May-22 07:48 309 1 gusting 4 21.1
2019-May-22 07:43 304 0 gusting 4 20.6
2019-May-22 07:38 265 1 gusting 5 20.6
2019-May-22 07:33 315 1 gusting 4 20.6
2019-May-22 07:28 309 20.6
2019-May-22 07:23 309 20.0
2019-May-22 07:18 309 19.4
2019-May-22 07:13 309 19.4
2019-May-22 07:08 309 18.9
2019-May-22 07:03 309 18.9
2019-May-22 06:58 309 18.9
2019-May-22 06:53 309 18.3
2019-May-22 06:48 309 17.8
2019-May-22 06:43 309 17.8
2019-May-22 06:38 309 17.2
2019-May-22 06:33 309 17.2
2019-May-22 06:28 309 16.7
2019-May-22 06:23 309 16.7
2019-May-22 06:18 308 16.1
2019-May-22 06:13 360 16.1
2019-May-22 06:08 309 15.6
2019-May-22 06:03 309 15.6
2019-May-22 05:58 309 15.0
2019-May-22 05:53 360 15.0
2019-May-22 05:48 360 15.0
2019-May-22 05:43 309 15.0
2019-May-22 05:38 309 14.4
2019-May-22 05:33 309 14.4
2019-May-22 05:28 309 14.4
2019-May-22 05:23 309 14.4
2019-May-22 05:18 360 14.4
2019-May-22 05:13 360 14.4
2019-May-22 05:08 308 13.9
2019-May-22 05:03 360 14.4
2019-May-22 04:58 360 14.4
2019-May-22 04:53 360 14.4
2019-May-22 04:48 360 14.4
2019-May-22 04:43 360 14.4
2019-May-22 04:38 309 14.4
2019-May-22 04:33 309 14.4
2019-May-22 04:28 309 14.4
2019-May-22 04:23 309 14.4
2019-May-22 04:18 309 14.4
2019-May-22 04:13 309 14.4
2019-May-22 04:08 309 14.4
2019-May-22 04:03 309 14.4
2019-May-22 03:58 309 14.4
2019-May-22 03:53 360 14.4
2019-May-22 03:48 360 14.4
2019-May-22 03:43 360 14.4
2019-May-22 03:38 309 14.4
2019-May-22 03:33 309 14.4
2019-May-22 03:28 360 14.4
2019-May-22 03:23 360 14.4
2019-May-22 03:18 360 15.0
2019-May-22 03:13 360 15.0
2019-May-22 03:08 360 15.0
2019-May-22 03:03 308 15.0
2019-May-22 02:58 360 15.0
2019-May-22 02:53 360 15.0
2019-May-22 02:48 360 15.0
2019-May-22 02:43 360 15.0
2019-May-22 02:38 306 15.0
2019-May-22 02:33 307 15.0
2019-May-22 02:28 360 15.6
2019-May-22 02:23 360 15.6
2019-May-22 02:18 360 15.6
2019-May-22 02:13 360 15.6
2019-May-22 02:08 360 15.6
2019-May-22 02:03 309 15.6
2019-May-22 01:58 309 15.6
2019-May-22 01:53 309 16.1
2019-May-22 01:48 309 16.1
2019-May-22 01:43 309 16.1
2019-May-22 01:38 309 16.1
2019-May-22 01:33 309 16.1
2019-May-22 01:28 309 16.1
2019-May-22 01:23 309 16.1
2019-May-22 01:18 309 16.1
2019-May-22 01:13 309 16.7
2019-May-22 01:08 309 16.7
2019-May-22 01:03 309 16.7
2019-May-22 00:58 308 16.7
2019-May-22 00:53 360 16.7
2019-May-22 00:48 360 16.7
2019-May-22 00:43 360 16.7
2019-May-22 00:38 360 16.7
2019-May-22 00:33 360 16.7
2019-May-22 00:28 360 16.7
2019-May-22 00:23 360 17.2
2019-May-22 00:18 309 17.2
2019-May-22 00:13 309 17.2
2019-May-22 00:08 309 17.2
2019-May-22 00:03 309 17.2